Flag for Austria Weather past 2 weeks in Wals-Siezenheim, Salzburg, Austria

Now
27 °F

Light snow. Partly cloudy.


Feels Like: 18 °F
Forecast: 18 / 29 °F
Wind: 8 mph from North

Location: Salzburg-Flughafen

Current Time: Dec 28, 2014 at 5:47:29 PM

Latest Report: Dec 28, 2014 at 4:50 PM


Visibility: 5 mi

Pressure: 30.07 "Hg

Humidity: 86%

Dew point: 23 °F

Location of Wals-SiezenheimLocation

Historic Weather in Wals-Siezenheim — Graph

°F

Wals-Siezenheim temperature yesterday

Maximum temperature yesterday: 34 °F (at 12:50 PM)
Minimum temperature yesterday: 27 °F (at 5:50 AM)
Average temperature yesterday: 31 °F

Past Weeks' High & Low Weather Summary

 TemperatureHumidityPressure
High55 °F (Dec 19, 1:50 PM)100% (Dec 16, 4:20 PM)30.51 "Hg (Dec 16, 4:20 PM)
Low27 °F (Dec 27, 5:50 AM)50% (Dec 14, 1:50 PM)29.50 "Hg (Dec 27, 3:20 PM)
Average39 °F78%30.10 "Hg
* Reported Dec 13 4:20 PM — Dec 28 4:20 PM, Wals-Siezenheim, Weather by CustomWeather, © 2014

Note: Actual official high and low records may vary slightly from our data, if they occured in-between our weather recording intervals... More about our weather records

Advertising

Wals-Siezenheim weather history for previous 24 hours

 ConditionsComfort  
Time TempWeatherWind HumidityBarometerVisibility
4:20 PM
Dec 28
27 °FLight snow. Broken clouds.10 mph93%30.04 "Hg3 mi
3:50 PM27 °FLight snow. Broken clouds.7 mph86%30.01 "Hg2 mi
3:20 PM28 °FSnow. Broken clouds.8 mph86%29.98 "Hg2 mi
2:50 PM28 °FLight snow. Broken clouds.7 mph86%29.95 "Hg4 mi
2:20 PM28 °FLight snow. Broken clouds.12 mph80%29.92 "Hg4 mi
1:50 PM28 °FSnow. Broken clouds.13 mph80%29.89 "Hg4 mi
1:20 PM28 °FLight snow. Broken clouds.10 mph86%29.86 "Hg3 mi
12:50 PM28 °FLight snow. Ice fog.12 mph86%29.86 "Hg1 mi
12:20 PM28 °FLight snow. Broken clouds.10 mph80%29.83 "Hg2 mi
11:50 AM28 °FLight snow. Broken clouds.14 mph86%29.80 "Hg3 mi
11:20 AM28 °FSnow. Broken clouds.13 mph93%29.80 "Hg1 mi
10:50 AM28 °FLight snow. Broken clouds.13 mph86%29.77 "Hg2 mi
10:20 AM30 °FLight snow. Broken clouds.15 mph86%29.74 "Hg4 mi
9:50 AM30 °FSnow. Broken clouds.10 mph86%29.71 "Hg2 mi
9:20 AM30 °FLight snow. Broken clouds.12 mph86%29.71 "Hg3 mi
8:50 AM30 °FLight snow. Broken clouds.9 mph93%29.68 "Hg4 mi
8:20 AM30 °FSnow. Partly sunny.7 mph100%29.65 "Hg1 mi
7:50 AM30 °FLight snow. Partly cloudy.7 mph93%29.65 "Hg4 mi
7:20 AM30 °FLight snow. Partly cloudy.8 mph93%29.62 "Hg6 mi
6:50 AM30 °FLight snow. Partly cloudy.8 mph93%29.62 "HgN/A
6:20 AM32 °FLight snow. Partly cloudy.5 mph93%29.59 "HgN/A
5:50 AM32 °FPartly cloudy.2 mph93%29.59 "HgN/A
5:20 AM30 °FPartly cloudy.2 mph100%29.56 "HgN/A
4:20 AM30 °FLight snow. Partly cloudy.2 mph100%29.56 "HgN/A
3:50 AM32 °FPartly cloudy.2 mph93%29.56 "HgN/A
3:20 AM32 °FSnow flurries. Partly cloudy.3 mph93%29.53 "HgN/A
2:50 AM32 °FLight snow. Passing clouds.3 mph93%29.53 "HgN/A
2:20 AM32 °FLight snow. Partly cloudy.5 mph93%29.53 "HgN/A
1:50 AM32 °FPassing clouds.5 mph93%29.53 "HgN/A
1:20 AM32 °FPartly cloudy.6 mph93%29.53 "HgN/A
12:50 AM32 °FLight snow. Passing clouds.5 mph93%29.53 "HgN/A
12:20 AM32 °FLight snow. Passing clouds.8 mph93%29.53 "Hg4 mi
11:50 PM
Dec 27
32 °FSnow flurries. Passing clouds.10 mph93%29.53 "Hg4 mi
11:20 PM32 °FLight snow. Passing clouds.9 mph93%29.53 "HgN/A
10:50 PM32 °FLight snow. Passing clouds.12 mph93%29.53 "HgN/A
10:20 PM30 °FLight snow. Partly cloudy.8 mph100%29.53 "Hg4 mi
9:50 PM32 °FSnow. Partly cloudy.6 mph93%29.56 "Hg1 mi
9:20 PM32 °FSnow showers. Partly cloudy.6 mph93%29.56 "Hg2 mi
8:50 PM30 °FLight snow. Partly cloudy.6 mph93%29.53 "HgN/A
8:20 PM30 °FLight snow. Passing clouds.12 mph93%29.53 "HgN/A
7:50 PM32 °FLight snow. Passing clouds.6 mph87%29.50 "HgN/A
7:20 PM34 °FLight snow. Partly cloudy.5 mph75%29.50 "HgN/A
6:50 PM32 °FPartly cloudy.3 mph80%29.50 "HgN/A
6:20 PM32 °FPassing clouds.5 mph80%29.50 "HgN/A
5:50 PM32 °FPassing clouds.3 mph87%29.50 "HgN/A
5:20 PM32 °FPassing clouds.3 mph87%29.50 "HgN/A
Weather by CustomWeather, © 2014

See weather overviewHow to use our weather pages